This is the latest recevied weather packets stored in our database for station/object EA5JUX. If no packets are shown the sender has not sent any weather packets the latest 10 day(s).
| Time | Temp. | Humidity | Pressure | Rain* | Wind** | Luminosity | Snow |
|---|---|---|---|---|---|---|---|
| 1777643790 | 22.78° C | 67% | 1019.2 hPa | 0 mm | - | - | - |
| 1777643505 | 22.78° C | 67% | 1018.8 hPa | 0 mm | - | - | - |
| 1777643189 | 23.33° C | 67% | 1019.2 hPa | 0 mm | - | - | - |
| 1777642890 | 23.33° C | 69% | 1019.2 hPa | 0 mm | - | - | - |
| 1777642590 | 22.78° C | 70% | 1019 hPa | 0 mm | - | - | - |
| 1777642289 | 22.78° C | 69% | 1019 hPa | 0 mm | - | - | - |
| 1777641989 | 22.78° C | 69% | 1019.2 hPa | 0 mm | - | - | - |
| 1777641689 | 22.78° C | 71% | 1019 hPa | 0 mm | - | - | - |
| 1777641389 | 22.78° C | 69% | 1019 hPa | 0 mm | - | - | - |
| 1777641089 | 22.78° C | 70% | 1019.1 hPa | 0 mm | - | - | - |
| 1777640789 | 22.78° C | 68% | 1019.4 hPa | 0 mm | - | - | - |
| 1777640490 | 22.22° C | 68% | 1019.3 hPa | 0 mm | - | - | - |
| 1777640210 | 22.78° C | 68% | 1019.3 hPa | 0 mm | - | - | - |
| 1777639889 | 22.78° C | 71% | 1019.3 hPa | 0 mm | - | - | - |
| 1777639589 | 21.67° C | 71% | 1019.3 hPa | 0 mm | - | - | - |
| 1777639289 | 21.67° C | 72% | 1019.1 hPa | 0 mm | - | - | - |
| 1777638989 | 21.67° C | 71% | 1019.5 hPa | 0 mm | - | - | - |
| 1777638710 | 22.22° C | 70% | 1019.2 hPa | 0 mm | - | - | - |
| 1777638390 | 22.22° C | 70% | 1019.2 hPa | 0 mm | - | - | - |
| 1777638090 | 22.78° C | 71% | 1019.4 hPa | 0 mm | - | - | - |
| 1777637789 | 22.22° C | 71% | 1019.3 hPa | 0 mm | - | - | - |
| 1777637510 | 22.78° C | 69% | 1019.6 hPa | 0 mm | - | - | - |
| 1777637189 | 23.33° C | 70% | 1019.6 hPa | 0 mm | - | - | - |
| 1777636889 | 22.22° C | 70% | 1019.6 hPa | 0 mm | - | - | - |
| 1777636590 | 22.78° C | 70% | 1019.2 hPa | 0 mm | - | - | - |
* Rain latest hour (hover to see other rain measurements)
** Current wind speed in m/s (hover to see current wind gust speed)